Location: Bannatyne
(13.0833°N, 59.5333°W)
Time: 07:33:57
(UTC+00:00)

Courier 1B - All Passes

Search period start: 25 January 2020 00:00
Search period end: 04 February 2020 00:00
Orbit: 962 x 1209 km, 28.3° (Epoch: 24 January)

Date Brightness Start Highest point End Pass type
(mag) Time Alt. Az. Time Alt. Az. Time Alt. Az.
25 Jan - 03:03:46 10° SW 03:09:50 38° SSE 03:16:12 10° E night (unlit)
25 Jan - 04:57:07 10° WSW 05:03:53 67° NNW 05:11:08 10° ENE night (unlit)
25 Jan - 06:52:37 10° WNW 06:58:48 30° NNW 07:05:18 10° NE visible
25 Jan - 08:48:35 10° NW 08:54:30 24° N 09:00:36 10° NE visible
25 Jan - 10:43:10 10° NW 10:50:10 36° NNE 10:57:14 10° E daylight
25 Jan - 12:37:12 10° WNW 12:45:06 81° NNE 12:52:53 10° ESE daylight
25 Jan - 14:32:30 10° W 14:39:24 34° SSW 14:46:07 10° SSE daylight
26 Jan - 02:10:45 10° SSW 02:16:07 27° SSE 02:21:39 10° E night (unlit)
26 Jan - 04:03:19 10° WSW 04:10:01 87° NNW 04:17:10 10° ENE night (unlit)
26 Jan - 05:58:22 10° W 06:04:39 35° NNW 06:11:18 10° NE night (unlit)
26 Jan - 07:54:25 10° NW 08:00:10 24° N 08:06:08 10° NE visible
26 Jan - 09:49:19 10° NW 09:55:54 31° NNE 10:02:38 10° ENE visible
26 Jan - 11:43:17 10° WNW 11:51:01 64° NNE 11:58:48 10° ESE daylight
26 Jan - 13:38:00 10° WNW 13:45:28 47° SSW 13:52:47 10° SE daylight
26 Jan - 15:36:37 10° WSW 15:39:47 13° SSW 15:42:54 10° S daylight
27 Jan - 01:18:06 10° S 01:22:23 18° SSE 01:26:44 10° ESE visible
27 Jan - 03:09:42 10° SW 03:16:14 70° SSE 03:23:08 10° ENE night (unlit)
27 Jan - 05:04:11 10° W 05:10:35 42° NNW 05:17:21 10° NE night (unlit)
27 Jan - 07:00:11 10° WNW 07:05:52 25° N 07:11:49 10° NE visible
27 Jan - 08:55:27 10° NW 09:01:36 27° N 09:07:58 10° ENE visible
27 Jan - 10:49:27 10° NW 10:56:54 51° NNE 11:04:30 10° E daylight
27 Jan - 12:43:45 10° WNW 12:51:30 63° SSW 12:59:11 10° SE daylight
27 Jan - 14:40:35 10° WSW 14:45:47 19° SSW 14:50:55 10° S daylight
28 Jan - 00:26:17 10° S 00:28:35 12° SSE 00:30:54 10° SE visible
28 Jan - 02:16:16 10° SW 02:22:31 50° SSE 02:29:00 10° ENE night (unlit)
28 Jan - 04:10:09 10° W 04:16:37 53° NNW 04:23:29 10° NE night (unlit)
28 Jan - 06:05:55 10° WNW 06:11:37 27° N 06:17:38 10° NE visible
28 Jan - 08:01:32 10° NW 08:07:18 24° N 08:13:19 10° ENE visible
28 Jan - 09:55:41 10° NW 10:02:45 41° NNE 10:10:03 10° E visible
28 Jan - 11:49:41 10° WNW 11:57:29 83° SSW 12:05:23 10° ESE daylight
28 Jan - 13:45:27 10° W 13:51:48 27° SSW 13:58:07 10° SSE daylight
29 Jan - 01:23:01 10° SSW 01:28:49 35° SSE 01:34:45 10° E visible
29 Jan - 03:16:15 10° WSW 03:22:46 69° NNW 03:29:37 10° ENE night (unlit)
29 Jan - 05:11:40 10° WNW 05:17:29 30° NNW 05:23:36 10° NE night (unlit)
29 Jan - 07:07:32 10° NW 07:13:01 23° N 07:18:44 10° NE visible
29 Jan - 09:01:57 10° NW 09:08:34 34° NNE 09:15:27 10° ENE visible
29 Jan - 10:55:46 10° WNW 11:03:28 77° NNE 11:11:21 10° ESE daylight
29 Jan - 12:50:47 10° W 12:57:51 37° SSW 13:04:55 10° SSE daylight
30 Jan - 00:30:01 10° SSW 00:35:07 24° SSE 00:40:14 10° E visible
30 Jan - 02:22:29 10° WSW 02:28:59 89° SSE 02:35:44 10° ENE night (unlit)
30 Jan - 04:17:27 10° W 04:23:25 35° NNW 04:29:42 10° NE night (unlit)
30 Jan - 06:13:27 10° NW 06:18:45 23° N 06:24:18 10° NE visible
30 Jan - 08:08:13 10° NW 08:14:21 29° NNE 08:20:46 10° ENE visible
30 Jan - 10:01:59 10° NW 10:09:24 60° NNE 10:17:08 10° ESE visible
30 Jan - 11:56:26 10° WNW 12:03:52 50° SSW 12:11:25 10° SE daylight
30 Jan - 13:54:19 10° WSW 13:58:17 15° SSW 14:02:14 10° S daylight
30 Jan - 23:37:24 10° S 23:41:22 17° SSE 23:45:18 10° ESE visible
31 Jan - 01:28:52 10° SW 01:35:16 65° SSE 01:41:47 10° ENE visible
31 Jan - 03:23:18 10° W 03:29:27 43° NNW 03:35:52 10° NE night (unlit)
31 Jan - 05:19:16 10° WNW 05:24:32 24° N 05:30:03 10° NE night (unlit)
31 Jan - 07:14:28 10° NW 07:20:08 25° N 07:26:05 10° ENE visible
31 Jan - 09:08:16 10° NW 09:15:20 47° NNE 09:22:45 10° E visible
31 Jan - 11:02:19 10° WNW 11:09:54 67° SSW 11:17:42 10° SE daylight
31 Jan - 12:58:43 10° WSW 13:04:15 21° SSW 13:09:49 10° SSE daylight
31 Jan - 22:45:50 10° SSE 22:47:33 11° SSE 22:49:15 10° SE visible
01 Feb - 00:35:24 10° SW 00:41:34 46° SSE 00:47:45 10° ENE visible
01 Feb - 02:29:15 10° W 02:35:34 55° NNW 02:42:06 10° NE night (unlit)
01 Feb - 04:25:01 10° WNW 04:30:24 26° N 04:36:00 10° NE night (unlit)
01 Feb - 06:20:37 10° NW 06:25:55 23° N 06:31:26 10° NE visible
01 Feb - 08:14:37 10° NW 08:21:15 38° NNE 08:28:13 10° E visible
01 Feb - 10:08:23 10° WNW 10:15:54 87° SSW 10:23:45 10° ESE daylight
01 Feb - 12:03:49 10° W 12:10:15 29° SSW 12:16:48 10° SSE daylight
01 Feb - 23:42:08 10° SSW 23:47:52 32° SSE 23:53:32 10° E visible
02 Feb - 01:35:20 10° WSW 01:41:46 73° NNW 01:48:20 10° ENE visible
02 Feb - 03:30:45 10° WNW 03:36:20 29° NNW 03:42:06 10° NE night (unlit)
02 Feb - 05:26:40 10° NW 05:31:42 22° N 05:36:55 10° NE night (unlit)
02 Feb - 07:21:00 10° NW 07:27:07 31° NNE 07:33:35 10° ENE visible
02 Feb - 09:14:36 10° WNW 09:21:55 73° NNE 09:29:39 10° ESE visible
02 Feb - 11:09:19 10° W 11:16:16 39° SSW 11:23:27 10° SE daylight
02 Feb - 13:09:32 10° SW 13:10:50 10° SSW 13:12:08 10° SSW daylight
02 Feb - 22:49:05 10° SSW 22:54:08 23° SSE 22:59:04 10° E visible
03 Feb - 00:41:32 10° WSW 00:48:02 84° SSE 00:54:33 10° ENE visible
03 Feb - 02:36:31 10° W 02:42:21 35° NNW 02:48:20 10° NE night (unlit)
03 Feb - 04:32:35 10° NW 04:37:31 22° N 04:42:37 10° NE night (unlit)
03 Feb - 06:27:21 10° NW 06:33:00 26° NNE 06:38:55 10° ENE visible
03 Feb - 08:20:56 10° NW 08:27:56 56° NNE 08:35:22 10° E visible
03 Feb - 10:15:08 10° WNW 10:22:19 52° SSW 10:29:50 10° SE daylight
03 Feb - 12:12:28 10° WSW 12:16:44 16° SSW 12:21:05 10° S daylight
03 Feb - 21:56:24 10° S 22:00:20 16° SSE 22:04:10 10° ESE daylight
